Weather in Novoisetskoye

Russia / Sverdlovsk Oblast     56°21′58″N   62°08′36″E
temp.,
°C
wind,
m/s
gust,
m/s
humid.,
%
clouds,
%
prec.,
mm/h
press.,
hPa
HPBL,
m
17 may, mon
mon1723:00+21sw611455 0.0 1017193
02:00+19wsw464747 0.0 101786
05:00+18wsw4105218 0.0 1018151
08:00+25w613395 0.0 1018609
11:00+30wsw710265 0.0 10172964
14:00+31w8102340 0.0 10163697
17:00+31w7122381 0.0 10153794
20:00+26w612358 0.0 1014305
18 may, tue
tue1823:00+20n486268 0.6 1016171
02:00+17s3380100 1.9 101547
05:00+17w4979100 2.3 1014186
08:00+21nw69617 0.0 1014583
11:00+24nnw68455 0.0 10141744
14:00+26n793497 0.0 10142660
17:00+22nne810466 0.0 10161656
20:00+16nne811622 0.0 1019965
19 may, wed
wed1923:00+12nne6117482 0.0 1022821
02:00+11nne5107210 0.0 1023660
05:00+9nne410780 0.0 1024361
08:00+13ne56604 0.0 1025832
11:00+16ne45425 0.0 10251288
14:00+19ene34365 0.0 10251558
17:00+20ne3334100 0.0 10241612
20:00+17e224622 0.0 102422
20 may, thu
thu2023:00+14sse11505 0.0 102511
02:00+12w115534 0.0 102410
05:00+11wsw22615 0.0 102511
08:00+16wsw33483 0.0 1025309
11:00+21wsw33350 0.0 10251324
14:00+24wsw34300 0.0 10231664
17:00+25wsw44270 0.0 10221823
20:00+21ssw46440 0.0 102192
21 may, fri
fri2123:00+17sw49460 0.0 1021115
02:00+14w34580 0.0 102153
05:00+13wnw33610 0.0 102230
08:00+20wnw35480 0.0 1022307
11:00+25wnw45320 0.0 10211439
14:00+27wnw34240 0.0 10201994
17:00+28wnw24230 0.0 10192379
20:00+24n11375 0.0 101911